Location: Rounton
(54.4000°N, 1.3500°W)
Time: 04:12:09
(UTC+01:00)

Tiros 1 despin weight - Pass Details

Date: 10 March 2024
Orbit: 579 x 623 km, 48.2° (Epoch: 16 April)

Event Time Altitude Azimuth Distance (km) Brightness Sun altitude
Exits shadow 04:52:02 - 196° (SSW) 2,211 ? -15.2°
Reaches altitude 10° 04:53:04 10° 187° (S) 1,938 ? -15.1°
Maximum altitude 04:55:47 16° 149° (SSE) 1,570 ? -14.7°
Drops below altitude 10° 04:58:30 10° 110° (ESE) 1,925 ? -14.3°
Sets 05:01:29 0° 89° (E) 2,820 ? -13.9°
